Regional Weather Roundup
Issued by NWS

Home | Current Version | Previous Version | Graphics & Text | Print | Product List | Glossary On
Versions: 1 2 3 4 5 6 7 8 9 10 11 12 13 14 15 16 17 18 19 20 21 22 23 24 25 26 27 28 29 30 31 32 33 34 35 36 37 38 39 40 41 42 43 44 45 46 47 48 49
000
ASUS45 KSLC 292210
RWRUT

UTAH REGIONAL WEATHER ROUNDUP
NATIONAL WEATHER SERVICE SALT LAKE CITY UT
400 PM MDT FRI MAY 29 2015

UTZ001>011-023>025-292300-

NORTHERN UTAH

CITY           SKY/WX    TMP DP  RH WIND       PRES   REMARKS
BRIGHAM CITY   SUNNY     72  42  33 SW5       30.16F
HILL AFB       SUNNY     72  39  30 VRB7      30.17F
LOGAN          SUNNY     71  41  33 NW6       30.16F
OGDEN          SUNNY     72  44  36 NW8       30.16F
PROVO AIRPORT  MOSUNNY   72  39  30 SW5       30.16F
SALT LAKE CITY MOSUNNY   75  38  26 N8        30.13F
VERNAL         MOSUNNY   69  39  33 CALM      30.21F
WENDOVER       SUNNY     73  45  35 SE5       30.14F
HEBER CITY     SUNNY     72  34  25 CALM      30.18F
WEST JORDAN    SUNNY     73  43  33 NW9       30.16F

$$

UTZ012>022-026-027-292300-

SOUTHERN/CENTRAL UTAH

CITY           SKY/WX    TMP DP  RH WIND       PRES   REMARKS
BLANDING       SUNNY     76  26  16 N7G18     30.24F
BRYCE CANYON   PTSUNNY   65  38  36 E13       30.29S
CEDAR CITY     MOSUNNY   77  41  27 VRB7      30.14F
DELTA          SUNNY     76  34  21 N7        30.13F
HANKSVILLE     MOSUNNY   79  32  18 CALM      30.14F
MILFORD        MOSUNNY   76  39  26 VRB5      30.12F
MOAB/CYNLANDS  SUNNY     79  31  17 MISG      30.11F
PRICE          MOSUNNY   74  33  22 E9        30.19F
ST GEORGE      CLEAR     93  37  14 CALM      29.95F
KANAB          PTSUNNY   79  39  24 NE14G20   30.14S

$$

REGIONAL REPORTS     COLORADO/ARIZONA

CITY           SKY/WX    TMP DP  RH WIND       PRES   REMARKS
CRAIG, CO      PTSUNNY   61  44  53 NE10      30.27S
GRAND JUNCTION SUNNY     73  39  29 W9        30.16F
RIFLE          PTSUNNY   68  37  32 MISG      30.19F
MONTROSE       MOSUNNY   72  35  25 VRB3      30.22F
CORTEZ         MOSUNNY   75  29  18 N15G23    30.18F
PAGE, AZ       PTSUNNY   84  33  16 NW7       30.08F
GRAND CANYON   MOSUNNY   74  33  22 VRB6      30.22F
KINGMAN        SUNNY     91  15   6 VRB7G21   30.00F
FLAGSTAFF      MOSUNNY   71  33  24 E12       30.25F

$$

REGIONAL REPORTS    NEVADA/IDAHO/WYOMING

CITY           SKY/WX    TMP DP  RH WIND       PRES   REMARKS
LAS VEGAS, NV  MOSUNNY   99  26   7 SE10      29.86F HX  92
ELY            MOSUNNY   72  39  30 SE7       30.17S
ELKO           SUNNY     77  33  20 CALM      30.11F
POCATELLO, ID  MOSUNNY   73  43  33 NW7       30.16F
BURLEY         SUNNY     75  44  33 E9        30.10F
EVANSTON, WY   PTSUNNY   62  37  39 NW5       30.28F
ROCK SPRINGS   MOSUNNY   60  40  47 VRB7      30.29F
KEMMERER       MOSUNNY   61  32  33 NW3       30.30F

$$


USA.gov is the U.S. government's official web portal to all federal, state and local government web resources and services.